Theta_e
306 306 306 305 305 306 306 305 306 305 306 306 310 311 314 316 317 315 315 314 313 311 312 312 312 311 310 310 310 310 310 310 310 309 309 310 309 311 315 316 318 323 330 333 333 335 336 337 337 336 335 335 337 338 338 338 337 337 336 337 338 337 338 337 338 338 339 338 338 338 337 336 336 335 334 333 333 332 330 329 329 331 333 334 335
306 305 304 304 305 306 306 305 305 305 306 306 310 311 314 316 316 314 315 313 312 310 311 311 311 310 309 309 309 309 309 309 309 309 309 309 309 309 313 314 317 320 325 330 333 335 335 336 335 336 335 336 336 335 336 335 335 336 335 336 336 335 336 337 338 338 337 337 336 336 335 335 335 333 332 331 330 331 330 329 331 331 331 332 335
305 305 304 304 305 305 305 305 305 305 305 307 309 311 314 315 314 314 312 311 311 310 310 310 309 309 309 309 309 309 309 309 309 308 309 308 308 309 309 312 314 317 320 325 331 334 335 335 334 337 337 335 335 336 334 333 334 333 333 333 334 336 337 337 337 336 334 334 334 334 333 332 332 331 331 330 329 328 330 332 333 333 335 335 335
306 305 304 304 304 304 305 304 304 304 304 307 308 313 314 314 314 315 314 311 310 309 310 308 307 308 307 307 309 309 309 309 309 308 308 308 308 308 308 309 311 315 317 320 325 331 333 335 335 336 334 336 335 333 332 332 333 332 334 334 335 336 336 336 334 333 332 331 331 330 330 330 330 329 328 328 327 328 329 331 333 334 334 334 333
306 306 305 304 304 304 305 305 305 304 305 307 309 311 313 312 313 314 313 311 310 308 310 308 306 306 307 306 307 308 309 308 308 307 307 307 307 308 308 307 307 311 313 317 321 328 333 334 333 333 334 336 336 336 334 334 334 334 333 334 334 334 335 335 333 332 331 330 330 330 330 330 331 331 332 330 327 328 330 332 333 333 332 332 331
306 305 304 303 304 305 304 304 304 305 306 306 305 308 312 312 313 311 312 309 307 307 306 306 304 304 304 305 305 307 307 307 307 307 307 307 307 307 307 307 307 308 309 313 317 323 329 333 334 333 334 336 337 335 336 334 333 332 333 333 334 334 334 335 334 330 329 329 329 330 330 331 332 333 333 333 333 333 333 332 332 332 332 332 331
306 306 304 303 303 303 303 304 304 304 304 304 305 308 311 312 311 311 310 308 307 305 305 304 303 303 303 303 303 305 306 306 307 307 306 306 307 307 307 307 307 307 308 309 313 317 323 329 332 333 334 333 334 334 335 335 334 334 335 334 334 334 334 335 334 333 331 330 331 332 333 333 333 333 333 333 333 332 332 333 333 332 332 332 332
306 306 304 304 303 303 303 304 304 303 304 304 304 306 310 312 311 311 308 307 306 304 304 302 302 302 302 302 302 303 303 304 305 306 306 306 306 306 306 306 306 306 307 308 309 313 318 323 328 329 332 333 332 332 334 335 334 333 336 334 334 335 336 335 334 333 333 333 333 332 333 333 333 333 333 333 333 332 332 332 332 332 332 332 331
306 306 305 304 303 303 303 305 304 303 303 303 302 305 310 312 309 310 308 306 304 303 302 302 301 301 301 300 301 301 301 303 304 304 306 305 305 306 305 305 305 306 307 307 308 310 314 317 323 324 325 329 333 332 333 333 334 335 338 339 336 335 338 338 337 334 333 333 334 332 333 333 333 333 333 332 331 332 333 332 332 331 331 330 330
307 306 304 305 303 303 303 305 304 303 304 303 302 304 310 309 309 309 308 307 305 302 301 301 302 301 300 300 300 300 300 301 303 303 303 304 304 305 305 304 305 305 306 307 308 309 311 314 318 321 321 323 329 333 333 333 333 334 335 333 334 334 335 335 335 335 335 333 333 333 332 333 333 333 333 331 333 332 332 331 331 330 330 330 330
307 306 305 304 303 303 304 304 304 303 303 302 303 307 310 309 309 306 306 305 304 302 301 302 301 300 299 299 298 299 299 300 300 301 302 303 303 304 305 303 304 304 304 305 306 308 309 311 313 317 321 320 323 329 332 332 332 332 333 333 333 334 333 334 334 333 333 332 333 333 333 333 333 333 333 332 331 331 331 331 330 330 330 330 330
307 306 305 304 303 303 303 304 303 303 303 301 302 305 308 308 308 306 303 303 303 303 301 300 299 298 297 298 298 298 298 298 298 298 300 302 302 303 303 303 302 303 304 304 305 306 307 308 310 313 318 321 320 323 327 329 331 332 333 333 333 333 333 334 334 333 333 332 332 332 332 332 332 332 332 331 331 331 331 331 331 330 330 331 331
307 306 305 305 304 302 304 303 303 303 302 302 302 306 308 308 307 306 303 302 301 301 300 299 297 295 296 296 296 298 298 297 297 297 297 298 300 300 302 302 302 302 303 303 304 304 305 306 308 310 313 320 322 321 322 326 329 333 334 334 333 333 333 333 333 333 333 332 332 332 332 332 332 332 332 331 331 331 331 330 331 331 331 330 331
307 306 305 304 303 302 303 302 302 302 302 302 303 307 309 308 307 305 304 302 300 301 302 300 297 294 293 294 294 295 296 296 297 297 297 297 298 298 300 301 301 301 302 302 302 302 302 303 306 307 309 313 321 323 323 324 325 330 332 332 333 334 334 334 333 333 333 332 331 331 332 332 332 331 332 332 332 332 332 331 329 329 330 332 332
307 306 306 304 303 302 303 303 302 302 301 301 302 305 309 307 306 305 303 302 301 303 301 300 296 296 296 294 292 292 295 294 295 296 297 296 297 298 299 299 299 300 301 301 300 300 300 302 304 305 306 308 314 321 323 322 325 328 330 331 332 332 335 334 333 333 333 332 331 331 331 331 331 331 332 332 332 332 332 332 332 331 332 332 332
307 306 306 305 304 303 303 303 302 302 301 301 302 305 307 306 306 305 304 302 299 300 302 302 300 299 294 294 293 294 290 292 291 293 296 296 297 297 296 297 297 299 300 299 299 299 298 300 303 304 304 305 309 315 318 322 325 326 328 328 329 331 334 333 333 333 332 331 331 331 331 331 331 331 331 331 332 332 332 331 331 330 330 330 331
307 306 305 305 304 303 303 303 302 302 302 302 302 305 305 305 307 305 304 302 300 299 301 301 301 300 299 298 293 293 292 291 290 290 292 294 295 295 295 296 296 296 297 297 297 298 297 298 301 303 303 303 305 310 314 317 320 320 327 329 330 331 331 333 332 332 332 331 330 329 330 329 329 329 330 331 331 330 330 330 331 330 330 330 330
306 306 305 305 305 304 303 303 302 302 302 302 301 302 304 305 306 306 304 303 302 299 299 300 300 300 299 298 298 295 291 292 291 289 291 294 295 295 294 295 294 295 296 295 295 295 296 296 298 300 301 301 302 305 309 315 316 321 323 326 329 330 331 331 331 330 330 329 328 327 327 328 327 328 328 328 328 328 329 329 328 328 329 329 329
306 306 305 305 305 304 304 303 303 302 303 301 300 302 304 305 307 306 305 305 303 300 300 300 299 300 301 299 298 298 299 292 291 289 289 291 292 292 294 294 295 294 294 294 294 293 293 294 295 296 298 300 300 302 305 309 319 325 328 328 328 329 330 330 330 330 329 327 326 326 326 326 327 326 326 326 327 327 327 327 327 327 327 327 327
306 306 305 305 305 304 304 303 303 303 302 301 300 301 304 306 306 307 306 305 305 302 300 299 299 298 300 298 297 298 298 298 298 295 292 287 289 292 293 294 294 293 293 292 292 292 292 292 293 294 295 297 298 299 302 304 308 316 323 326 327 328 329 329 329 329 328 327 326 325 325 325 325 325 325 325 325 325 325 324 325 325 326 326 326
305 306 305 305 305 305 304 303 303 302 303 302 300 301 302 304 305 306 306 305 305 304 302 300 299 299 298 297 297 297 297 297 297 296 295 289 289 288 289 292 293 293 292 292 292 291 291 291 292 293 294 294 295 297 299 300 301 304 318 326 326 327 327 327 327 328 327 326 326 325 324 324 324 324 324 324 323 323 323 323 323 323 323 323 323
304 305 305 305 304 305 304 304 303 302 302 301 300 300 301 303 305 305 305 305 304 304 304 302 301 301 300 298 297 296 295 295 295 294 295 295 290 289 290 290 291 292 292 291 291 290 290 290 291 291 291 292 293 294 296 298 297 299 302 319 324 325 326 326 327 327 326 324 323 324 323 323 323 323 322 322 322 322 321 321 321 320 320 320 320
303 304 305 305 304 304 305 304 303 303 302 301 301 301 302 302 304 305 304 305 304 303 303 303 302 301 300 298 298 298 296 294 294 295 294 292 292 290 290 292 292 290 291 290 290 290 290 290 289 290 290 290 291 293 294 296 297 296 298 313 318 323 324 325 325 325 324 323 322 322 322 322 322 322 321 321 321 321 320 320 319 319 319 318 318
303 303 304 305 304 304 304 304 303 302 302 302 301 301 301 301 302 304 304 303 303 303 302 302 302 301 299 299 299 299 298 297 296 297 296 294 294 291 291 291 291 289 290 290 290 289 290 289 289 289 289 289 290 291 292 294 295 295 295 302 316 321 323 323 323 323 323 322 321 321 321 321 321 320 319 319 319 319 319 318 318 318 318 318 317
302 303 304 304 304 303 303 303 303 302 302 302 301 300 301 300 301 302 303 302 303 303 301 301 302 302 300 300 299 300 299 298 299 298 297 297 296 290 290 290 287 287 287 288 289 289 289 289 288 288 288 288 291 291 292 293 292 294 294 295 305 317 322 323 322 321 320 321 320 321 321 320 320 320 319 318 317 317 317 317 316 316 316 315 315
303 303 304 305 304 304 304 303 303 302 302 302 301 301 301 301 300 301 301 302 302 302 302 300 301 301 301 300 300 300 298 300 299 299 298 297 295 292 290 289 286 287 286 288 289 290 291 289 288 287 287 287 288 289 291 291 292 292 293 292 298 305 316 320 320 319 319 319 319 320 320 320 320 319 318 317 316 316 316 315 315 315 315 314 313
303 303 303 304 304 304 303 303 303 302 302 301 302 301 301 301 300 300 300 301 301 302 301 300 302 301 301 301 300 299 299 298 298 300 299 298 297 292 290 287 286 284 284 285 286 289 290 288 288 286 287 287 288 289 289 289 291 293 293 292 295 303 306 319 319 318 318 317 317 318 319 319 319 319 318 317 316 315 314 315 314 313 313 313 313
303 303 303 304 304 303 303 303 302 302 302 302 301 301 301 301 299 299 299 301 300 300 301 301 301 300 301 301 300 299 300 300 300 299 298 299 299 294 292 291 288 285 283 283 284 286 290 290 287 288 287 287 289 288 290 289 291 291 293 294 295 297 304 311 318 317 317 316 316 316 317 317 317 317 317 317 315 314 313 313 313 313 313 312 313
303 304 303 303 303 303 302 302 302 302 301 301 301 301 301 301 300 298 299 299 299 299 300 301 301 301 300 301 301 300 299 300 300 300 300 299 299 296 294 293 292 288 282 281 283 285 287 292 290 289 288 287 288 288 288 289 290 290 291 292 293 293 298 304 312 317 316 315 315 315 315 316 316 316 316 315 314 313 312 312 312 312 312 312 312
304 304 303 303 303 302 302 302 302 302 301 301 301 301 301 300 300 299 299 299 299 299 299 299 300 300 301 301 301 300 300 300 301 300 300 300 298 298 295 294 294 293 289 286 286 286 285 289 292 290 287 288 288 288 288 288 292 289 290 291 291 290 296 299 303 310 314 313 314 314 314 315 315 316 315 315 314 312 312 312 311 311 311 311 312
303 303 303 303 302 302 302 301 302 302 301 301 301 301 301 300 300 300 299 299 299 298 298 299 299 298 299 300 300 300 300 300 300 300 300 300 299 298 297 295 295 295 292 289 286 287 289 288 290 291 288 288 288 288 288 288 289 289 289 289 290 292 294 294 298 303 309 313 313 313 314 315 316 315 314 314 313 312 311 311 311 311 311 311 311
303 304 303 303 302 302 302 302 301 301 301 301 301 301 301 300 300 299 299 299 298 298 298 298 299 298 298 298 298 299 299 298 298 299 299 299 299 298 298 296 294 294 294 292 290 289 286 287 288 290 290 289 287 288 287 287 288 291 287 289 290 292 291 291 295 298 303 310 311 312 313 314 314 314 314 314 313 313 312 311 311 311 311 310 308
302 303 303 303 302 302 301 301 301 301 301 301 301 300 300 299 299 299 298 298 298 298 298 297 297 297 297 297 297 298 297 298 298 297 297 298 298 298 297 295 295 294 294 293 291 290 284 283 285 286 288 288 286 287 287 287 286 285 288 287 289 289 289 289 290 295 298 302 307 309 310 311 312 312 312 312 312 312 311 311 310 309 308 307 306
302 303 302 302 302 301 301 300 301 301 301 301 300 300 299 299 299 299 298 298 298 297 297 297 296 297 297 296 296 296 296 297 296 296 296 296 296 296 295 295 295 294 294 293 292 290 288 282 280 281 284 287 288 286 289 287 287 286 286 287 288 288 287 288 290 290 296 297 301 306 308 309 308 308 308 310 310 310 309 308 307 307 306 306 305
301 301 301 301 301 301 300 300 300 300 300 300 300 300 299 299 298 298 298 297 297 297 296 297 296 296 296 296 296 296 296 296 296 295 295 295 295 295 295 294 295 294 293 294 292 290 290 283 280 281 282 284 287 286 287 289 289 287 286 287 287 287 287 286 288 288 294 296 299 301 305 307 307 307 306 306 306 306 306 306 306 305 306 305 303
300 300 300 300 300 300 300 299 299 299 299 299 299 299 299 298 298 298 297 297 297 297 297 297 296 296 296 295 295 295 295 295 295 294 293 294 294 294 294 294 294 294 293 293 294 293 290 287 280 281 281 282 283 282 285 285 286 286 287 287 286 287 286 286 286 287 290 294 296 298 300 303 305 305 305 305 305 305 304 305 304 304 304 303 301
299 299 299 298 299 299 299 299 298 298 299 299 299 298 299 298 298 298 297 297 297 297 297 297 296 296 296 296 296 295 294 294 293 293 293 292 293 293 293 294 293 294 293 293 293 292 290 289 284 280 280 280 281 281 283 284 283 284 284 286 286 286 285 285 285 287 291 292 294 295 296 298 300 302 304 304 304 303 303 303 302 302 300 299 298
299 299 299 299 299 299 299 299 298 298 298 298 298 298 298 298 297 297 297 297 297 297 297 297 297 296 296 296 296 295 294 294 294 294 293 293 293 292 292 292 292 292 291 290 291 290 291 289 285 280 278 279 278 279 282 284 284 283 283 283 282 283 284 284 284 284 285 287 288 289 293 296 298 299 301 303 303 302 302 301 301 300 298 297 297
298 298 298 298 298 298 298 298 298 298 297 298 298 298 297 297 297 296 296 296 296 296 296 296 296 296 296 296 295 295 294 294 294 293 292 292 292 292 292 292 291 290 289 289 289 289 289 288 283 282 280 279 279 278 279 282 283 284 284 283 282 282 283 284 284 281 282 283 285 288 288 289 292 293 298 301 302 301 301 300 299 297 297 297 297
297 297 297 297 297 296 297 297 297 297 297 297 297 297 297 296 296 296 296 296 296 296 296 296 295 295 295 295 295 295 294 294 294 294 293 292 292 291 291 291 290 289 289 288 288 288 288 288 286 282 280 279 277 276 277 279 280 280 282 284 284 282 281 282 284 281 281 282 282 282 285 288 290 292 296 297 299 300 299 299 297 295 295 296 296
298 297 296 296 295 295 295 296 296 296 296 297 297 296 296 295 295 295 295 295 295 295 294 294 294 294 294 294 294 294 294 293 293 293 293 293 292 290 290 290 290 289 289 288 288 287 287 288 287 282 280 278 278 277 276 277 279 281 282 283 283 283 282 281 280 281 282 281 281 281 283 285 287 287 288 289 291 295 296 296 295 294 294 296 295
294 295 294 295 295 295 294 294 294 295 296 297 295 295 295 296 295 295 295 294 294 293 293 292 291 292 292 292 293 292 292 291 291 292 293 293 292 292 291 290 290 289 289 288 287 287 287 287 287 284 280 280 278 278 278 278 279 278 279 281 281 280 279 280 281 279 281 281 281 280 282 284 286 286 286 287 287 289 290 291 291 292 294 295 295
293 291 293 294 293 294 294 294 294 295 296 296 294 296 296 296 295 294 294 293 293 292 291 291 291 290 290 290 290 291 291 290 290 291 292 292 292 292 292 291 291 291 289 289 288 288 287 287 288 286 284 282 280 279 279 279 278 278 278 279 280 279 280 280 280 279 280 281 281 281 281 283 285 285 285 285 286 286 288 289 292 292 293 294 294
291 289 290 292 292 292 294 292 292 293 294 293 295 295 295 296 295 294 293 292 292 291 291 291 291 290 290 290 290 291 291 290 290 290 290 291 292 292 292 292 291 292 292 291 290 288 288 288 287 287 287 285 283 280 279 278 278 277 277 277 279 279 279 279 281 280 279 282 281 280 282 282 283 285 285 284 285 285 286 289 293 292 293 293 293
289 289 290 289 289 288 289 289 290 290 289 293 295 295 295 295 295 294 292 291 291 290 290 290 290 290 289 289 289 290 291 289 289 290 289 289 289 290 291 291 291 291 292 293 293 291 290 289 288 288 288 288 285 283 281 280 280 278 278 277 278 279 279 279 280 281 276 281 281 281 281 282 281 282 283 284 284 284 285 289 290 292 292 293 294
288 287 287 287 287 287 287 289 289 288 289 291 294 294 294 294 294 294 291 290 289 289 289 289 290 289 290 289 289 289 289 289 289 289 289 289 288 288 288 288 288 289 290 291 291 291 290 290 290 289 289 289 288 285 283 282 279 279 278 278 278 278 278 279 280 280 277 281 280 281 280 281 280 281 282 283 282 283 283 286 289 291 291 292 292
287 286 287 287 287 287 287 287 288 289 290 292 293 294 294 294 294 293 290 289 289 288 288 288 289 289 289 290 289 289 288 288 288 288 288 288 287 287 287 286 287 287 287 288 288 288 289 289 289 290 289 287 287 283 282 283 282 282 281 281 280 279 280 279 277 277 276 280 280 280 277 280 278 280 281 281 278 281 280 285 288 290 291 291 291
286 286 286 287 286 286 286 286 287 286 286 292 293 293 293 293 294 291 289 288 288 288 288 288 287 288 288 288 288 288 287 287 287 289 289 288 287 286 285 285 285 285 286 287 289 289 289 289 289 288 286 284 286 283 282 282 282 282 282 280 279 279 277 275 276 274 274 277 279 280 278 276 275 279 279 273 273 274 276 280 287 289 290 290 290
286 286 285 285 285 286 286 286 286 286 286 288 291 292 292 293 292 288 287 287 287 287 287 287 287 287 287 286 286 287 286 286 287 290 290 288 286 285 285 284 284 284 284 285 288 290 290 290 290 291 291 291 292 291 288 288 284 282 279 278 278 278 276 275 275 272 273 275 277 279 279 275 274 277 276 270 271 272 273 274 279 287 289 289 289
284 283 284 284 285 285 285 285 285 285 285 286 289 291 291 292 290 287 286 286 286 286 286 286 286 286 287 287 287 287 287 286 288 290 291 288 285 285 283 283 283 283 283 283 284 286 289 289 289 289 290 290 291 292 291 289 288 285 280 278 279 278 276 277 275 275 272 274 275 279 276 276 273 274 272 269 268 269 271 272 274 277 285 287 288
284 283 284 284 284 284 285 286 287 286 284 285 288 290 290 291 289 285 286 285 285 285 285 285 285 286 286 286 286 287 287 287 289 290 290 288 285 284 283 283 282 282 283 282 283 283 283 284 285 285 285 287 287 287 286 289 288 285 282 281 280 278 277 277 278 274 270 271 275 278 275 274 270 273 270 267 266 268 269 269 272 274 275 279 282
Wind_Speed
5 5 5 4 4 2 1 2 3 1 0 2 2 3 3 0 3 1 1 0 4 3 2 4 3 4 5 5 5 6 6 6 6 7 7 7 8 11 19 22 22 25 28 26 25 26 25 21 16 18 17 15 17 16 17 17 16 16 17 17 15 13 15 13 13 13 16 16 16 24 27 26 25 27 28 28 26 23 23 27 25 19 15 17 18
6 5 5 4 3 2 1 2 1 2 1 2 1 1 1 1 0 1 0 2 4 3 3 4 4 4 4 4 6 5 5 6 6 7 7 7 8 8 16 20 21 23 24 26 26 25 24 23 19 20 21 19 19 19 20 20 19 19 19 19 19 16 16 17 18 20 23 24 22 24 30 28 26 28 27 25 24 24 25 23 22 22 20 18 16
5 5 5 4 3 3 3 4 3 3 2 1 0 1 1 4 2 3 2 3 4 4 3 5 4 4 4 4 5 5 6 6 6 6 7 8 7 8 10 16 19 21 23 25 28 24 25 23 23 20 23 23 23 22 21 21 21 22 19 21 21 21 22 23 23 27 31 30 27 23 24 29 27 25 24 24 22 23 24 22 20 23 18 15 14
4 5 4 4 5 4 5 3 3 3 2 1 1 0 2 3 2 1 1 3 4 2 2 4 4 3 4 4 4 5 5 6 6 7 7 7 7 8 8 10 15 20 20 23 24 25 22 22 21 22 22 22 23 22 22 23 23 23 25 25 25 25 25 27 28 29 28 29 28 27 25 22 21 23 26 25 23 20 20 18 16 18 16 15 16
5 4 4 4 4 4 3 2 2 1 3 3 0 1 2 2 1 2 0 2 3 2 4 5 5 5 4 4 5 5 5 5 6 6 7 7 7 7 8 9 9 13 19 20 22 24 25 21 21 23 23 20 22 22 23 23 24 25 24 25 25 26 26 26 25 24 24 24 25 23 22 21 21 21 22 24 24 20 16 16 16 16 17 18 14
5 4 4 3 3 3 3 3 3 2 4 3 3 3 3 4 4 2 2 2 4 3 4 5 4 5 5 4 5 4 5 5 6 6 6 7 7 7 8 8 8 9 9 14 20 22 25 22 21 20 20 20 21 21 21 22 22 24 25 25 25 24 24 25 25 25 24 26 26 24 23 22 21 19 19 22 21 21 19 18 18 17 18 19 16
5 6 5 4 4 4 4 4 3 3 3 4 5 5 3 3 3 5 2 4 4 3 4 5 3 4 4 5 5 5 5 5 5 6 7 6 6 7 7 8 8 8 8 8 12 18 21 22 21 21 19 19 22 21 19 20 20 19 21 22 23 24 25 25 25 25 25 23 22 21 21 20 20 20 20 20 21 19 21 20 20 20 18 17 16
5 6 6 5 4 6 6 4 4 3 3 4 2 2 3 4 2 4 3 4 4 3 4 4 4 4 4 5 5 5 5 5 5 5 6 6 6 7 7 8 8 8 8 8 8 11 18 19 20 20 19 16 17 20 20 19 20 16 19 21 22 23 24 24 23 22 22 20 20 21 22 22 20 19 18 18 20 21 20 19 20 22 22 20 19
6 6 7 5 4 5 5 4 4 4 3 4 3 4 3 3 2 1 3 4 5 4 4 4 3 4 3 4 4 4 5 5 5 5 5 6 7 7 7 8 8 9 8 8 8 8 12 16 18 21 20 17 13 16 19 20 19 18 18 18 19 21 21 21 21 22 21 21 20 20 20 19 21 21 20 21 22 22 21 21 22 22 22 22 20
6 6 5 6 5 5 4 6 5 4 3 3 4 4 4 3 4 1 3 5 5 4 4 3 3 3 3 4 4 4 5 5 5 5 5 6 6 7 7 6 7 8 8 8 8 8 8 11 15 16 18 16 15 15 16 19 19 19 19 18 17 19 19 21 19 20 22 20 19 19 19 20 20 20 20 21 21 23 23 23 23 23 21 20 20
6 6 6 6 6 4 6 5 4 4 3 4 4 2 5 3 5 2 2 2 6 5 5 5 3 3 3 3 4 4 4 4 5 5 5 5 6 6 5 7 7 8 8 8 8 8 9 8 8 8 10 18 15 13 12 12 18 18 18 18 17 21 20 19 19 19 19 19 19 19 18 19 20 20 20 21 22 23 23 22 21 20 19 19 20
7 6 6 5 5 5 5 5 5 4 4 4 4 4 4 4 5 4 4 4 5 6 5 5 4 4 3 3 3 3 4 4 4 5 5 6 6 5 7 6 7 7 9 8 8 8 8 8 8 8 7 11 16 13 10 9 9 15 17 16 17 19 19 20 19 18 17 17 17 17 17 17 17 18 19 19 18 18 18 18 19 19 18 18 19
7 7 7 6 6 5 5 5 5 4 4 5 4 5 4 4 5 4 5 4 2 4 4 5 5 3 3 2 2 2 3 4 4 4 5 5 5 6 5 6 7 8 7 7 8 8 8 9 8 8 8 7 9 13 12 11 10 13 16 17 17 17 18 17 17 17 16 14 14 15 16 16 16 16 16 16 16 16 16 16 16 16 15 15 16
8 7 7 6 6 6 6 6 5 5 4 4 4 4 5 4 5 4 3 5 3 4 5 6 1 3 3 0 1 2 3 3 4 4 4 4 5 5 6 6 7 6 6 7 8 9 9 8 7 8 8 7 8 7 7 7 7 10 11 13 15 16 16 17 16 16 15 13 13 13 14 14 14 14 15 15 15 15 16 15 15 15 15 17 18
8 7 7 6 7 6 7 7 6 5 4 4 5 4 6 5 6 6 5 3 3 4 5 4 3 4 4 4 1 0 1 1 2 3 4 4 4 6 5 6 6 5 5 6 7 8 7 7 8 8 8 8 7 7 7 7 8 11 11 12 13 14 17 16 17 17 16 14 13 12 13 12 12 13 14 15 15 15 15 15 15 15 16 17 18
8 7 7 6 7 7 6 6 7 5 6 5 5 4 5 4 6 5 5 5 3 4 4 5 3 2 3 3 4 4 1 1 0 1 2 4 5 4 4 5 5 6 5 7 6 7 7 7 8 8 8 8 7 7 6 6 13 13 15 13 15 16 17 18 18 19 19 18 16 14 15 17 18 15 13 13 14 14 13 12 13 11 12 12 14
8 8 7 8 7 7 7 7 7 6 5 6 6 6 5 5 6 5 6 6 5 3 4 4 4 2 1 0 1 0 1 2 2 1 3 2 3 3 4 4 5 5 5 5 5 5 6 7 7 7 8 8 8 7 6 5 5 4 10 14 18 19 20 20 20 21 22 22 22 23 22 20 21 21 20 19 18 18 17 15 15 14 14 15 15
8 8 7 7 7 7 6 7 7 7 6 6 5 5 5 6 7 6 5 5 7 4 4 4 4 3 4 2 0 1 3 3 1 1 2 1 0 2 3 3 4 4 5 5 6 6 6 6 6 7 7 7 7 7 7 6 5 5 4 10 18 19 21 21 22 22 22 22 22 22 22 21 23 23 22 21 23 23 22 23 23 23 21 23 24
8 8 7 7 7 7 6 6 7 7 6 6 6 7 7 6 5 6 6 6 5 6 7 6 2 3 3 3 2 1 1 4 2 3 0 1 1 2 3 3 3 4 4 4 5 5 5 5 6 6 6 6 7 6 6 6 7 6 11 13 15 18 20 21 22 22 22 22 21 20 19 19 21 22 23 22 20 20 20 21 21 20 20 21 23
8 8 8 7 7 7 7 6 6 7 7 7 7 6 7 5 6 7 5 6 6 6 6 6 8 4 5 4 2 2 1 0 1 3 3 2 2 2 1 1 2 3 3 3 4 4 5 5 6 6 6 6 6 6 6 6 6 5 5 11 15 16 18 20 21 20 21 20 20 19 19 19 19 20 20 20 20 20 21 21 21 20 20 20 21
8 8 8 8 7 8 7 7 6 7 7 7 6 6 8 7 7 7 8 7 7 6 5 7 7 7 4 4 4 4 4 2 1 2 1 2 0 1 2 1 1 0 2 3 3 3 3 3 3 4 5 5 6 6 6 6 6 6 4 10 13 17 18 19 20 19 19 19 18 18 18 18 18 19 19 19 20 20 20 18 18 20 20 20 19
7 7 8 8 8 7 8 8 8 7 7 7 6 6 6 7 8 8 7 7 5 7 8 6 8 7 8 6 6 3 3 2 2 2 1 1 4 4 5 5 4 2 1 2 1 1 2 2 3 3 3 4 5 5 5 5 5 4 7 5 12 16 17 17 18 18 17 18 18 17 17 17 17 18 17 18 19 20 20 19 19 18 19 18 19
7 7 8 8 9 8 8 8 7 7 7 7 7 7 7 7 7 7 7 8 7 6 6 6 5 7 7 7 8 8 7 6 6 4 4 2 2 2 2 4 4 3 3 2 2 1 1 1 1 2 2 3 3 3 4 4 4 6 9 4 11 13 15 17 17 16 16 16 17 17 17 17 17 17 17 17 17 18 19 18 19 19 19 18 18
8 7 8 9 9 8 8 8 8 8 8 7 7 7 6 5 5 7 7 6 5 5 4 6 6 4 6 7 7 7 6 5 6 7 7 5 5 5 5 3 1 1 1 1 0 1 0 0 0 0 1 2 2 3 3 3 4 8 5 6 7 11 15 15 16 17 17 15 16 16 17 17 16 17 18 18 17 17 18 18 18 18 18 17 17
9 10 9 10 9 9 9 9 8 8 7 7 6 6 6 6 6 5 6 6 7 6 6 6 7 7 6 5 7 7 7 6 5 6 6 6 6 5 3 3 4 2 1 1 2 1 3 3 2 1 1 2 3 4 4 4 4 6 8 5 7 8 12 16 16 15 15 15 15 15 16 17 17 17 18 18 18 17 17 17 17 17 17 16 16
11 12 11 11 10 10 10 9 8 7 7 8 7 7 6 7 7 7 6 7 6 6 6 5 5 6 4 4 5 6 6 6 5 5 6 5 4 6 5 1 2 3 0 0 0 1 2 2 2 1 1 1 2 3 3 4 4 8 9 6 7 8 5 12 14 12 12 13 14 14 14 15 17 17 16 17 17 16 17 17 17 16 16 16 16
10 9 9 11 11 9 9 10 9 8 7 7 8 7 7 6 7 7 6 6 6 7 7 6 6 6 6 6 6 5 5 4 5 5 5 6 5 7 7 6 0 2 0 1 2 4 3 2 4 3 3 2 2 1 1 1 2 5 6 3 4 6 9 8 13 13 12 11 11 12 13 13 13 15 15 15 16 16 16 15 15 16 15 15 15
8 8 9 10 11 10 9 10 9 9 8 9 8 8 7 8 7 7 7 5 7 7 7 7 7 7 7 6 5 6 6 7 6 6 6 6 6 7 7 8 8 4 0 3 4 6 4 4 2 5 5 6 4 3 2 0 1 1 3 2 2 3 4 6 14 15 14 14 13 13 13 13 14 14 15 14 14 14 13 13 12 13 14 14 14
8 9 10 9 10 10 10 10 10 10 9 9 9 8 8 8 8 8 8 7 8 8 7 8 9 8 7 8 9 8 7 5 6 7 7 5 6 8 9 10 8 7 5 6 7 8 6 8 7 7 8 7 6 5 4 3 2 1 0 1 3 2 5 6 8 13 13 15 15 16 16 16 16 16 16 15 14 13 12 12 12 13 14 14 14
9 8 9 10 10 11 10 10 9 9 10 9 9 10 9 9 9 9 8 8 8 7 8 8 9 8 8 8 8 8 7 7 8 7 7 8 7 8 8 8 9 9 7 8 8 8 6 6 8 6 6 8 6 6 4 4 3 1 0 1 2 2 5 6 6 7 10 14 15 16 16 17 17 17 17 16 15 14 14 15 14 14 14 14 15
8 8 9 10 10 10 10 10 10 11 10 10 10 10 10 9 9 9 8 9 9 9 9 9 9 9 9 11 9 9 8 9 8 8 8 8 8 8 8 8 8 8 8 7 5 5 7 8 8 5 7 8 7 5 4 4 3 3 1 0 2 4 5 4 5 6 7 13 14 16 18 18 19 18 18 17 17 16 15 15 15 15 15 15 14
8 9 9 10 10 11 10 11 11 10 10 10 10 10 10 10 9 9 9 9 10 11 10 9 8 9 9 10 10 10 8 7 8 8 8 8 8 8 7 7 7 7 8 7 8 7 2 4 6 7 7 8 7 7 6 3 2 4 2 2 2 4 3 2 2 5 6 9 14 14 16 19 21 20 20 19 19 19 18 18 17 17 17 16 15
8 9 10 11 11 10 10 10 10 10 10 10 9 9 10 10 10 10 10 11 11 10 8 9 8 7 9 10 10 10 7 9 9 8 8 8 7 8 7 7 7 7 8 8 9 7 2 1 3 5 6 8 6 7 8 6 5 3 3 3 3 3 2 2 1 2 4 7 12 14 14 15 17 19 20 20 20 20 20 19 19 19 18 16 15
7 8 8 7 8 8 9 9 9 9 9 10 9 9 10 10 10 8 9 10 11 10 8 10 9 8 8 10 10 9 8 10 9 9 9 8 8 8 8 8 8 8 8 8 9 8 8 1 2 2 4 6 9 6 11 10 8 5 6 5 4 3 2 2 1 1 2 5 7 13 16 15 16 16 17 18 19 19 19 18 17 15 14 14 16
6 7 7 7 8 8 8 9 9 9 10 9 9 10 11 11 11 10 10 10 11 11 11 12 10 9 9 10 11 9 6 8 10 9 7 8 7 9 9 8 9 9 8 8 8 8 8 7 5 6 7 7 10 10 10 8 7 7 8 7 6 4 3 1 0 2 1 3 5 8 13 17 15 16 17 17 17 18 17 16 16 15 14 16 17
7 6 6 7 7 8 9 8 9 9 9 9 9 10 11 11 11 11 10 11 11 11 12 11 10 10 11 10 11 9 8 10 9 8 7 7 8 9 9 9 9 10 8 8 10 9 8 8 7 9 8 8 8 4 6 5 7 8 8 6 4 6 5 3 2 4 4 4 4 6 8 12 16 16 17 18 17 18 18 17 17 17 15 18 19
6 6 5 5 7 8 9 10 10 10 10 10 11 11 11 10 11 11 11 11 12 12 12 12 12 12 12 13 13 10 9 10 9 9 8 9 9 8 10 9 10 10 8 9 10 9 8 10 7 5 5 5 3 4 7 9 6 5 4 8 8 8 6 5 3 4 6 4 5 6 7 9 12 14 17 19 17 17 18 18 17 17 17 20 20
6 6 8 7 8 9 9 9 9 10 9 10 11 12 11 10 10 10 10 11 11 11 11 11 11 11 12 13 12 11 11 12 12 11 9 11 9 9 10 9 9 7 8 8 7 7 8 7 8 5 4 8 5 4 7 9 9 8 6 6 4 4 6 7 7 4 3 3 4 3 5 6 8 11 15 19 19 18 17 19 18 18 20 22 21
6 6 6 6 6 6 7 6 7 8 8 8 9 10 9 9 9 10 10 10 10 10 10 11 10 10 11 11 10 10 12 12 12 12 11 10 10 12 11 10 8 7 8 8 7 8 8 7 5 7 8 7 6 8 5 6 5 7 11 9 9 6 6 8 7 2 1 2 2 3 3 2 5 6 10 15 18 19 18 18 17 19 21 22 23
6 5 5 6 5 5 6 6 6 6 7 7 8 8 8 8 9 10 10 10 10 10 9 10 10 10 10 11 10 11 12 12 12 11 10 11 9 10 9 8 8 9 9 8 8 8 8 8 9 8 7 7 5 1 3 5 6 6 9 11 13 10 10 6 5 6 4 4 5 4 3 3 3 3 5 8 14 18 19 18 20 20 22 21 21
5 5 5 5 5 5 5 6 6 6 7 8 7 8 8 8 9 9 10 10 10 10 9 9 9 10 9 10 10 10 11 13 15 13 13 12 9 10 10 9 9 10 9 7 8 8 8 9 8 5 7 7 8 9 9 11 15 18 10 7 7 6 6 5 5 4 6 6 5 3 5 4 3 4 4 4 5 10 14 16 16 22 22 22 21
5 5 5 5 5 6 6 6 5 6 7 6 8 13 11 8 8 8 8 9 9 9 9 8 8 8 9 8 9 14 15 15 15 16 17 17 16 13 11 10 11 10 10 9 9 9 9 10 11 9 10 10 11 13 13 14 9 3 6 10 10 5 5 6 4 5 6 7 6 8 7 3 4 4 5 6 5 7 6 8 9 12 19 22 22
5 5 5 6 5 5 6 6 7 8 7 7 12 13 13 14 10 8 9 9 8 9 9 9 10 9 8 7 7 10 12 12 13 16 17 17 17 17 16 16 14 13 11 11 11 10 11 11 10 9 11 12 12 11 13 10 9 11 9 9 9 7 10 11 13 4 7 11 9 8 7 6 6 9 7 7 6 5 6 8 11 16 20 22 22
4 4 5 5 5 5 5 5 7 7 7 9 12 12 12 14 13 9 8 8 8 9 9 10 9 9 9 9 8 8 9 10 9 10 13 16 17 17 17 17 17 18 16 14 12 10 11 11 11 12 11 12 11 11 11 9 11 9 7 8 11 13 11 12 11 11 7 13 11 9 12 7 8 9 8 7 8 7 7 10 18 17 19 21 22
2 3 4 4 4 4 4 5 5 5 5 8 11 11 11 13 14 12 7 7 8 8 8 9 9 9 8 9 9 8 9 14 12 9 9 10 13 17 17 16 16 17 18 20 18 14 10 12 13 12 13 11 11 12 13 13 9 11 10 10 12 12 13 13 13 9 5 13 10 11 12 9 9 9 10 9 7 6 9 13 16 19 21 23 27
2 3 3 4 4 4 4 5 5 5 5 6 9 9 10 12 12 11 6 7 7 7 8 8 8 8 9 9 8 8 6 7 8 9 9 10 9 10 10 10 10 12 14 16 16 17 14 13 12 14 13 9 13 7 9 12 14 14 13 15 12 12 13 15 10 8 6 12 16 11 9 10 10 10 12 9 8 9 8 11 19 20 21 22 25
3 4 4 4 4 4 4 4 4 5 5 7 9 10 10 11 12 11 7 7 7 6 6 6 6 7 7 8 7 8 6 7 7 8 9 9 8 9 9 10 11 10 11 11 11 10 10 9 11 13 8 7 8 6 10 13 16 14 15 16 15 15 13 5 4 4 5 10 10 9 14 9 8 11 13 8 6 9 7 12 19 24 24 24 24
2 1 2 1 2 3 3 3 3 4 4 6 7 7 9 10 12 8 6 7 7 7 7 6 5 5 5 6 6 6 6 6 8 13 12 8 8 9 9 9 9 9 10 11 12 13 13 11 10 9 5 4 5 6 8 11 11 9 8 5 4 6 7 7 12 5 8 9 13 14 10 6 7 12 9 4 6 7 6 7 18 25 24 25 25
1 1 3 3 3 3 3 3 4 4 4 6 7 8 8 9 7 5 5 6 6 7 7 6 6 6 5 5 5 6 5 6 8 12 14 12 8 9 9 9 8 7 10 7 12 17 18 18 18 16 12 11 10 7 9 12 10 9 8 8 11 10 10 11 8 7 11 9 10 13 8 6 8 9 7 2 4 6 5 6 6 20 26 23 24
1 2 3 3 2 2 2 3 3 3 3 4 5 6 7 8 7 5 5 5 5 5 6 5 5 5 6 10 9 7 8 8 11 14 15 13 10 9 9 9 9 10 8 5 5 9 15 17 18 18 17 16 14 14 11 12 15 12 12 14 10 9 12 12 12 10 4 7 10 11 8 11 6 7 7 2 3 2 1 1 3 3 14 21 25
1 1 1 1 1 1 0 1 1 1 1 3 4 4 5 7 5 3 4 4 5 5 5 5 4 6 6 7 12 11 9 9 12 13 14 13 10 9 9 9 11 11 8 5 8 7 5 7 8 8 9 11 10 9 9 13 16 15 13 12 9 12 14 12 9 4 3 9 10 13 12 8 10 8 9 5 5 4 2 5 4 6 5 4 10
Wind_Direction
197 185 181 201 219 206 186 227 230 253 205 285 170 232 266 267 113 135 231 6 69 24 354 38 30 16 0 357 356 3 6 1 3 359 1 358 353 346 350 354 356 358 12 18 27 33 43 53 65 83 82 88 97 107 112 110 111 118 123 122 121 124 121 127 130 132 115 115 135 134 127 120 120 120 121 121 121 112 108 116 123 129 126 132 141
186 183 176 195 190 196 182 252 265 245 175 253 222 219 251 332 85 156 275 76 64 17 0 48 30 27 359 11 1 5 1 1 4 8 1 360 357 346 351 354 357 3 4 7 17 35 44 53 66 85 91 95 97 96 95 97 102 101 107 110 111 113 111 111 114 118 114 115 116 122 122 124 117 116 113 110 112 117 123 129 136 137 146 155 147
176 180 172 174 183 181 192 219 206 236 183 231 54 332 324 85 39 46 36 66 68 36 8 44 32 30 1 13 8 11 7 3 5 6 7 2 359 354 347 351 359 3 4 7 20 32 37 42 51 58 74 79 81 86 91 96 102 105 111 105 111 113 111 106 106 109 111 113 113 110 111 116 117 116 113 114 117 124 132 138 139 146 153 144 142
174 171 166 174 182 193 203 191 209 214 149 126 43 315 82 80 28 33 31 67 92 74 17 65 25 29 27 4 11 18 11 6 5 6 5 4 360 359 356 353 357 9 9 10 13 28 45 47 52 55 57 83 90 92 97 104 103 101 103 107 105 104 104 105 106 107 109 112 115 115 112 105 108 116 120 122 127 140 141 140 143 139 133 127 145
177 159 170 171 185 182 184 178 213 188 120 98 76 290 105 119 153 269 122 80 62 32 46 54 36 6 27 14 11 20 6 10 8 4 10 4 3 0 2 360 357 360 10 14 11 19 30 38 54 63 61 66 85 90 91 90 92 96 99 98 99 100 99 96 94 98 102 105 106 106 108 111 112 114 119 127 134 141 144 135 121 117 125 124 126
163 164 161 184 189 169 181 199 202 137 111 133 182 237 185 154 193 150 70 87 80 58 60 45 26 16 15 17 8 16 13 11 11 10 6 5 1 5 4 4 1 4 358 7 17 21 25 34 44 59 78 72 72 84 89 91 93 97 98 98 97 97 100 101 102 104 104 111 115 116 118 120 124 122 120 127 135 137 136 133 128 119 117 129 142
162 161 168 185 185 170 188 211 171 140 151 180 199 225 169 172 190 119 148 94 95 76 85 73 46 25 18 15 7 11 17 9 6 11 6 1 4 8 7 7 6 4 2 7 8 18 21 25 29 38 46 68 76 75 76 85 91 91 95 97 98 99 101 102 101 104 110 112 116 117 120 122 123 121 122 122 122 125 122 118 120 121 123 133 142
168 154 168 193 176 179 190 189 140 143 201 185 197 240 160 180 136 129 124 108 91 80 84 80 63 41 22 20 13 23 11 7 6 11 5 2 13 10 9 8 8 5 4 8 7 5 16 26 31 27 27 38 67 78 81 80 88 92 96 102 104 102 101 102 106 109 111 114 117 120 121 122 120 120 122 125 124 123 123 126 126 125 125 120 117
167 160 162 186 189 182 184 151 147 171 205 150 197 237 155 140 119 63 124 121 105 107 90 88 76 63 32 28 25 28 16 8 9 8 3 13 9 15 9 7 6 8 10 9 7 5 8 17 31 34 33 27 46 72 84 85 80 83 83 91 98 103 101 103 107 112 113 113 116 120 122 121 120 120 122 124 125 124 124 124 125 125 125 124 119
166 167 166 177 185 184 153 143 155 186 176 166 201 224 139 140 123 147 125 130 138 121 95 77 71 63 48 39 22 32 25 13 11 4 12 11 12 13 10 5 8 9 10 11 9 7 8 11 18 29 32 31 34 59 79 88 88 83 84 88 94 96 101 104 107 109 110 114 118 120 122 123 123 126 126 126 126 128 129 131 131 131 130 128 127
167 166 175 173 180 182 140 152 155 181 175 187 221 190 140 164 136 124 54 121 142 133 130 121 106 81 64 49 48 33 27 32 25 17 7 9 8 4 12 14 7 9 11 11 8 8 11 11 12 18 27 32 33 37 51 85 99 103 101 108 105 101 102 101 104 105 109 116 119 119 119 122 125 126 127 129 131 132 134 134 133 132 134 137 140
169 168 173 175 172 175 150 153 167 176 177 187 208 167 166 156 136 134 111 82 96 115 124 117 108 109 100 52 45 49 45 50 40 25 13 10 6 4 18 7 15 9 12 9 8 9 13 9 9 10 15 27 32 34 37 44 91 107 105 100 100 101 100 103 103 105 105 107 112 118 121 124 126 128 130 131 133 134 135 134 134 138 145 146 148
170 165 177 174 171 168 152 158 177 180 176 192 188 180 175 150 143 135 139 131 123 134 155 134 127 73 67 95 57 60 62 64 56 40 25 10 6 16 12 17 12 14 7 2 10 9 7 11 8 7 10 18 30 34 44 55 62 103 106 108 107 107 106 105 106 107 109 112 117 120 123 126 129 133 133 134 136 137 137 137 138 143 147 150 156
171 167 175 173 170 167 163 165 176 190 182 188 200 166 162 154 141 143 163 147 162 169 183 130 135 152 143 328 29 5 23 48 58 40 35 15 18 20 17 20 16 6 4 8 11 9 6 2 7 9 6 11 31 36 38 37 41 75 96 107 111 112 112 112 114 113 114 118 124 127 129 130 133 135 139 139 140 141 141 142 144 151 163 167 167
170 169 173 176 173 164 171 164 175 182 181 192 186 170 168 169 160 157 174 172 148 181 184 171 171 171 158 100 201 36 319 6 29 48 42 25 25 29 11 17 12 11 11 15 15 6 360 359 6 9 4 7 9 35 40 40 57 84 88 89 95 105 111 113 114 113 114 114 120 127 129 132 138 144 148 146 144 145 146 149 157 168 171 170 169
171 171 173 176 173 172 167 164 178 182 175 179 176 180 174 176 171 169 156 168 158 196 194 202 180 116 167 193 199 143 37 298 54 311 84 55 41 29 19 13 7 15 17 25 12 6 358 357 8 7 5 5 5 13 24 44 63 68 81 91 102 108 106 110 111 108 108 106 105 113 125 117 110 112 124 140 145 147 142 146 145 148 161 161 165
171 174 173 177 175 173 168 171 170 186 176 173 177 185 184 184 180 181 172 164 180 159 225 199 198 167 149 314 92 93 209 201 109 310 355 17 8 40 24 17 14 13 25 22 12 14 4 3 2 9 9 5 5 4 10 20 54 67 89 99 105 101 101 104 106 106 105 104 102 102 105 107 108 106 105 111 113 114 119 122 136 145 160 149 143
173 175 177 173 177 178 171 168 172 181 184 177 175 177 189 186 192 189 185 175 164 149 192 242 202 177 171 158 166 176 167 202 104 256 339 143 107 40 50 32 20 16 24 28 18 6 8 8 2 8 8 6 1 3 3 11 38 54 66 111 110 112 111 108 106 103 100 100 102 103 104 104 106 106 104 102 107 111 112 114 113 114 111 113 113
176 175 178 178 175 177 176 173 173 177 181 177 181 185 189 191 186 191 197 190 160 170 177 199 230 242 175 166 158 199 153 125 213 111 27 319 2 1 12 14 38 35 28 28 22 14 1 6 4 1 2 4 2 1 4 5 12 67 98 111 116 116 116 114 110 107 102 101 99 98 101 105 106 107 106 106 102 105 105 107 108 107 111 114 114
174 177 178 177 175 178 177 177 175 182 177 189 188 184 178 189 185 190 199 191 196 174 181 171 174 232 185 171 191 268 249 136 159 160 157 161 279 336 11 348 17 61 62 48 33 22 3 358 0 0 354 0 2 0 6 4 7 12 76 107 114 116 115 114 114 113 111 109 109 109 105 104 105 104 107 107 106 106 104 105 108 110 106 105 112
177 175 178 178 176 177 178 181 182 186 181 189 192 183 181 180 187 189 200 205 193 196 172 180 174 192 153 208 178 194 222 222 161 128 147 111 236 182 245 325 353 31 95 89 68 50 21 351 344 358 358 356 360 360 4 11 6 4 16 107 114 114 113 113 112 115 115 117 116 115 115 113 114 113 113 112 112 110 108 103 101 102 99 97 102
183 178 178 179 178 175 178 185 188 189 185 188 192 190 187 184 189 191 194 203 204 192 202 182 183 181 178 169 178 186 167 223 243 212 246 140 166 216 185 170 195 264 139 102 91 75 20 356 357 9 4 353 354 355 3 9 11 4 342 101 119 116 115 115 116 117 119 121 122 119 120 119 118 118 118 118 118 115 115 114 111 106 107 109 109
181 186 182 179 180 178 181 187 187 189 187 185 194 195 196 188 188 188 193 199 208 203 197 208 184 183 178 173 185 183 183 178 196 187 173 169 120 171 156 184 180 169 248 160 141 141 123 356 23 357 354 341 337 349 357 357 15 353 348 85 118 124 127 127 125 125 123 124 126 126 127 128 127 124 123 121 120 121 121 120 119 119 118 117 115
186 185 188 184 179 185 183 181 189 189 194 190 191 194 192 188 186 189 198 202 208 205 199 204 215 197 183 181 186 185 194 185 187 179 179 201 165 175 169 185 168 122 206 100 28 165 177 199 200 33 320 335 323 327 335 353 3 2 358 346 136 139 140 138 137 135 135 132 134 135 132 134 133 133 133 132 129 129 129 127 126 127 128 127 127
192 191 193 186 181 183 186 187 191 195 191 185 191 186 185 187 194 194 194 197 202 203 203 208 201 213 202 198 182 186 195 204 180 180 187 187 164 144 223 156 161 181 254 137 238 277 211 233 204 232 293 324 332 338 336 354 6 358 1 339 342 158 155 150 147 152 149 145 145 146 145 143 144 143 142 142 144 143 141 140 140 140 140 140 141
187 195 189 185 188 191 189 193 191 189 189 188 185 188 184 187 191 197 200 202 195 205 210 207 207 215 205 211 200 187 200 200 202 174 179 180 195 147 146 126 66 162 348 242 267 143 288 236 194 196 236 308 324 326 348 357 4 1 359 350 337 335 190 165 165 164 161 163 161 158 156 154 153 153 151 151 150 149 149 149 148 148 151 151 151
190 193 181 187 191 188 190 190 189 188 188 187 187 187 189 186 190 197 201 196 199 198 209 203 208 209 212 211 212 212 208 208 191 209 171 184 174 151 144 146 60 54 299 287 291 231 220 262 183 205 207 209 247 307 1 347 346 358 358 351 333 335 334 195 171 174 175 177 176 176 168 167 165 161 161 160 159 162 162 162 163 161 160 161 164
184 176 189 185 189 191 190 193 189 188 189 190 186 186 188 189 191 189 200 192 198 199 205 201 212 208 207 210 208 223 209 207 197 202 195 179 176 149 160 161 160 219 242 242 248 251 202 205 240 209 195 196 205 189 173 226 249 351 356 352 322 322 315 270 190 185 180 184 187 191 188 186 183 178 174 167 164 164 169 177 178 178 180 182 183
181 181 182 186 188 189 190 193 190 190 189 189 188 188 186 189 192 193 197 195 193 201 198 200 208 204 203 202 207 212 214 204 204 200 200 190 186 165 174 175 174 167 182 218 232 218 244 194 197 224 190 191 193 197 181 218 176 162 34 342 329 337 323 329 245 194 189 193 192 189 189 193 195 189 185 179 173 178 184 181 182 186 188 189 190
180 180 177 181 186 188 190 193 192 188 190 189 189 190 186 192 194 198 196 187 196 200 202 199 205 199 203 206 204 210 209 203 206 202 197 197 196 186 180 186 172 189 184 195 246 198 215 212 201 201 194 193 185 192 189 185 162 126 94 355 329 327 332 323 312 268 202 185 200 200 197 195 193 189 189 185 183 181 189 189 189 188 188 184 181
175 176 179 182 183 188 190 192 190 192 191 192 188 191 189 195 196 200 196 190 194 202 203 197 205 195 202 207 206 211 201 208 205 204 202 197 200 196 194 179 193 188 181 180 235 260 178 195 216 197 177 193 179 176 182 179 162 152 176 259 312 321 316 312 311 284 256 196 195 202 202 198 189 193 196 190 191 187 194 190 188 188 188 184 182
184 177 181 183 185 187 192 191 192 192 192 194 190 192 193 200 196 200 201 195 200 204 206 205 203 204 206 210 212 213 206 206 211 206 207 206 198 198 198 191 196 193 180 191 212 244 237 202 201 194 174 174 175 176 192 177 148 165 191 227 261 297 299 291 283 301 280 235 199 203 206 202 199 200 200 198 196 195 194 195 191 193 191 189 180
183 184 185 186 186 189 189 192 192 192 193 195 193 191 197 201 201 202 200 201 205 210 204 211 209 206 211 216 218 217 200 207 214 211 210 206 200 202 197 195 202 197 184 194 216 234 273 312 158 187 180 153 185 194 186 190 188 191 204 232 246 252 285 296 227 297 300 278 217 205 211 206 201 203 203 201 201 201 200 198 198 195 193 185 175
188 190 189 186 186 184 187 193 194 194 196 196 193 192 200 204 207 203 203 203 209 212 205 213 208 208 208 217 222 215 203 209 210 212 208 201 198 198 204 197 205 206 195 185 212 205 219 267 68 63 159 182 193 195 194 187 199 178 198 215 233 228 241 326 243 218 309 291 262 217 210 206 208 202 200 199 198 201 202 201 201 198 190 180 167
198 192 188 186 185 185 190 192 193 196 196 197 196 197 204 205 206 207 205 203 207 209 208 214 208 204 209 217 223 215 203 213 217 216 201 202 195 198 207 201 208 208 201 198 188 211 209 214 179 171 187 191 197 197 205 204 191 181 188 205 208 209 215 202 299 198 225 267 257 238 221 212 207 204 200 199 198 194 197 195 195 194 188 173 167
205 206 192 191 186 189 193 195 195 197 197 198 199 203 206 205 207 207 205 207 210 211 212 212 209 203 209 215 224 213 204 214 219 215 208 198 196 203 205 208 208 209 203 199 202 206 198 187 203 190 193 180 219 203 195 182 183 189 199 194 190 205 207 210 199 196 213 233 236 237 228 223 214 205 200 199 200 193 191 192 192 191 184 169 170
205 197 207 191 193 193 198 198 197 198 199 196 201 206 208 208 208 208 207 209 212 212 212 210 207 205 207 211 217 208 201 212 217 214 205 204 204 201 206 209 209 210 206 202 210 202 192 200 195 205 177 205 196 177 179 177 187 196 194 202 202 198 199 203 204 205 196 191 209 220 229 224 218 210 205 198 198 197 192 191 190 188 169 165 168
204 201 196 200 198 202 203 203 200 203 199 200 204 207 207 206 208 210 211 212 214 216 216 215 211 209 210 213 214 205 202 207 215 213 207 210 205 208 212 211 213 208 209 216 212 212 212 208 174 162 186 184 188 197 192 187 179 189 208 223 208 203 189 205 215 199 192 194 205 223 229 223 212 212 209 205 198 195 192 193 188 185 167 166 168
205 210 208 204 211 205 211 204 206 204 204 207 211 212 210 206 208 211 215 217 217 218 220 218 216 214 216 216 214 208 208 210 213 211 207 208 207 214 209 211 206 199 208 211 207 209 209 201 190 191 181 205 184 190 197 192 197 200 197 196 223 205 209 208 206 204 173 213 283 281 263 243 205 198 210 208 203 197 192 193 182 175 173 171 171
206 207 207 206 213 204 211 207 210 204 205 210 214 214 212 208 208 213 213 215 217 219 220 220 217 217 216 216 215 212 211 212 211 213 204 209 209 216 212 206 201 200 208 206 204 206 208 211 200 191 194 174 189 107 105 150 196 246 223 203 208 196 211 210 209 180 207 187 220 239 291 295 242 194 175 184 195 198 193 187 177 174 174 175 175
202 206 203 199 202 210 213 210 211 206 208 215 213 210 208 210 208 213 214 218 218 220 220 219 219 218 216 216 216 214 214 214 212 212 210 207 199 210 212 203 205 203 209 201 204 201 214 213 219 178 182 188 190 168 172 189 199 209 193 187 220 207 191 196 226 201 189 188 210 213 234 209 187 188 169 181 200 185 192 181 176 176 175 175 174
197 196 201 205 202 203 207 214 213 212 216 218 218 214 207 206 210 212 212 217 216 218 218 221 226 223 221 219 220 217 217 216 215 215 215 211 209 207 206 198 202 202 204 202 202 203 205 211 216 192 198 203 192 196 195 206 200 136 151 188 206 181 148 209 245 217 182 183 186 217 219 192 191 201 191 191 203 183 177 176 180 175 178 175 177
201 202 197 210 213 207 207 206 213 217 218 219 218 217 215 208 205 209 210 214 210 213 212 212 220 220 227 223 224 225 225 224 222 221 219 218 217 214 211 205 201 196 199 203 210 200 205 214 213 204 211 210 207 198 207 193 187 196 190 183 189 167 193 189 216 180 193 179 200 211 222 204 185 203 202 201 190 190 195 190 177 177 180 180 182
229 206 209 214 216 217 216 215 215 218 223 222 221 222 217 217 213 212 210 208 209 210 211 213 215 214 217 219 220 218 221 219 218 223 226 226 224 221 219 213 209 208 204 200 203 206 209 214 215 216 212 216 205 194 202 180 197 187 191 175 190 193 197 207 213 207 195 175 189 199 222 191 197 211 203 201 199 200 197 192 192 186 188 188 188
258 248 251 246 247 254 239 240 246 244 242 236 233 229 224 221 222 219 221 214 210 214 212 213 213 213 214 216 222 219 223 218 219 219 217 227 230 230 229 227 224 216 215 216 211 209 202 214 220 222 215 214 209 209 193 194 169 184 184 194 202 201 207 210 215 199 154 175 178 207 219 205 185 206 212 206 195 189 198 199 196 192 193 197 199
257 263 273 260 259 251 244 244 251 258 253 262 250 243 238 233 231 228 232 227 225 219 218 215 216 216 215 218 222 227 220 215 215 214 217 220 221 227 230 228 228 232 231 229 226 222 213 215 217 226 223 202 223 200 183 172 173 192 188 207 198 202 207 216 211 195 168 171 186 187 221 212 186 197 218 206 184 199 200 198 199 196 196 199 202
232 240 243 253 251 241 245 238 242 252 254 255 252 247 242 236 234 230 229 229 234 235 232 224 221 219 218 221 225 227 218 215 212 207 213 217 218 225 226 228 228 229 229 230 227 228 228 226 226 231 227 206 221 183 179 183 191 195 192 198 193 200 207 203 195 181 150 186 178 170 219 205 158 197 220 194 175 199 194 200 202 204 204 205 206
258 235 278 228 244 256 251 243 246 262 270 267 260 251 242 239 237 233 228 227 230 230 231 231 229 225 219 218 222 226 220 218 213 208 210 208 217 224 226 231 232 232 234 231 230 233 233 232 232 231 213 208 185 184 187 187 196 194 196 192 173 182 171 182 213 166 186 196 183 189 214 195 178 194 207 126 160 185 193 198 209 208 206 206 208
264 282 251 245 244 244 255 244 241 253 264 265 255 243 237 239 238 238 230 232 233 235 237 232 232 226 221 210 210 216 219 223 210 209 213 204 219 222 227 232 233 232 238 232 231 236 238 241 246 247 237 229 229 202 179 192 187 176 160 170 198 178 181 206 211 172 213 179 197 200 197 203 196 185 172 77 127 179 189 211 215 214 210 212 211
309 269 256 255 264 226 216 246 226 238 261 286 265 246 242 243 231 226 228 232 245 243 249 244 240 242 235 227 220 222 222 222 207 206 208 203 215 219 221 230 237 238 240 215 221 235 236 239 241 242 243 244 242 245 229 198 193 176 175 201 194 164 202 207 208 206 175 188 202 184 183 215 138 159 148 72 55 305 92 225 224 273 225 215 215
285 302 7 73 9 5 330 217 297 332 315 332 308 268 256 255 245 233 230 232 243 249 250 255 251 241 243 237 231 228 229 228 223 222 216 206 217 215 216 222 233 237 232 197 217 220 216 225 236 234 242 238 237 233 234 218 199 194 198 201 171 185 204 210 204 133 170 237 203 179 189 198 147 188 143 129 201 249 133 205 207 210 232 243 220